| time (UTC) | temp C | wind direction | speed KPH | gust KPH | rain 1hr cm | rain 24hr cm | rain mn cm | humidity % | barometer mb |
| 20260506041806 | 8 | 260 | 19.3 | 0.0 | 0.00 | 0.00 | 0.00 | 93 | |
| 20260506031608 | 8 | 260 | 19.3 | 0.0 | 0.00 | 0.00 | 0.00 | 93 | |
| 20260506021607 | 8 | 260 | 14.5 | 0.0 | 0.00 | 0.00 | 0.00 | 93 | |
| 20260506011707 | 8 | 270 | 22.5 | 0.0 | 0.00 | 0.00 | 0.00 | 99 | |
| 20260506001606 | 10 | 270 | 19.3 | 0.0 | 0.00 | 0.00 | 0.00 | 93 | |
| 20260505231607 | 10 | 260 | 14.5 | 0.0 | 0.00 | 0.00 | 0.00 | 93 | |
| 20260505221606 | 10 | 270 | 14.5 | 0.0 | 0.00 | 0.00 | 0.00 | 93 | |
| 20260505211606 | 11 | 110 | 3.2 | 0.0 | 0.00 | 0.00 | 0.00 | 93 | |
| 20260505201606 | 11 | 270 | 8.0 | 0.0 | 0.00 | 0.00 | 0.00 | 93 | |
| 20260505191607 | 11 | 280 | 22.5 | 0.0 | 0.00 | 0.00 | 0.00 | 93 | |
| 20260505181607 | 11 | 270 | 25.7 | 0.0 | 0.00 | 0.00 | 0.00 | 93 | |
| 20260505171606 | 13 | 70 | 14.5 | 0.0 | 0.00 | 0.00 | 0.00 | 82 | |
| 20260505161706 | 17 | 70 | 8.0 | 0.0 | 0.00 | 0.00 | 0.00 | 63 | |
| 20260505151606 | 20 | 70 | 3.2 | 0.0 | 0.00 | 0.00 | 0.00 | 40 | |
| 20260505121606 | 22 | 110 | 3.2 | 0.0 | 0.00 | 0.00 | 0.00 | 35 | |
| 20260505111606 | 20 | 20 | 3.2 | 0.0 | 0.00 | 0.00 | 0.00 | 45 | |
| 20260505101606 | 20 | 40 | 8.0 | 0.0 | 0.00 | 0.00 | 0.00 | 45 | |
| 20260505091606 | 17 | 70 | 3.2 | 0.0 | 0.00 | 0.00 | 0.00 | 52 | |
| 20260505081606 | 17 | 70 | 8.0 | 0.0 | 0.00 | 0.00 | 0.00 | 51 | |
| 20260505071606 | 15 | 70 | 8.0 | 0.0 | 0.00 | 0.00 | 0.00 | 62 | |
| 20260505061606 | 15 | 70 | 8.0 | 0.0 | 0.00 | 0.00 | 0.00 | 62 |